CW4054 Weather Reports


Display with metric or nautical units.
time (UTC)temp
F
wind
direction
speed
MPH
gust
MPH
rain 1hr
in
rain 24hr
in
rain mn
in
humidity
%
barometer
mb
20190620093325 72 212 0.0 0.0 0.00 0.03 0.00 96 1003.7
20190620092831 72 212 0.0 0.0 0.00 0.03 0.00 96 1003.7
20190620092335 72 212 0.0 0.0 0.00 0.03 0.00 96 1003.7
20190620091824 72 212 0.0 0.0 0.00 0.03 0.00 96 1003.7
20190620091329 72 212 0.0 0.0 0.00 0.03 0.00 96 1003.7
20190620090834 72 212 0.0 0.0 0.00 0.03 0.00 96 1003.8
20190620090320 72 212 0.0 0.0 0.00 0.03 0.00 96 1003.8
20190620085835 72 210 0.0 0.0 0.00 0.03 0.00 96 1003.9
20190620085322 72 210 0.0 0.0 0.00 0.03 0.00 96 1003.7
20190620084827 72 210 0.0 0.0 0.00 0.03 0.00 96 1003.7
20190620084332 72 210 0.0 0.0 0.00 0.03 0.00 96 1003.6
20190620083836 72 210 0.0 0.0 0.00 0.03 0.00 96 1003.6
20190620083320 72 210 0.0 0.0 0.00 0.03 0.00 96 1003.6
20190620082824 72 210 0.0 0.0 0.00 0.03 0.00 96 1003.6
20190620082335 72 210 0.0 0.0 0.00 0.03 0.00 96 1003.6
20190620081821 72 210 0.0 0.0 0.00 0.03 0.00 96 1003.6
20190620081327 72 210 0.0 0.0 0.00 0.03 0.00 96 1003.6
20190620080831 72 210 0.0 0.0 0.00 0.03 0.00 97 1003.7
20190620080336 72 210 0.0 0.0 0.00 0.03 0.00 96 1003.7
20190620075830 72 210 0.0 0.0 0.00 0.03 0.00 96 1003.8
20190620075335 72 210 0.0 0.0 0.00 0.03 0.00 96 1003.8
20190620074822 72 184 0.0 0.0 0.00 0.03 0.00 96 1003.7
20190620074326 72 184 0.0 0.0 0.00 0.03 0.00 96 1003.7
20190620073832 72 223 0.0 0.0 0.00 0.03 0.00 96 1003.7
20190620073321 72 223 0.0 0.0 0.00 0.03 0.00 96 1003.8
20190620072825 72 223 0.0 0.0 0.00 0.03 0.00 96 1003.9
20190620072330 72 223 0.0 0.0 0.00 0.03 0.00 96 1003.8
20190620071834 72 223 0.0 0.0 0.00 0.03 0.00 96 1003.8
20190620071337 72 223 0.0 0.0 0.00 0.03 0.00 96 1003.8
20190620070824 72 223 0.0 0.0 0.00 0.03 0.00 96 1003.8
20190620070329 72 223 0.0 0.0 0.00 0.03 0.00 96 1003.9
20190620065823 71 223 0.0 0.0 0.00 0.03 0.00 96 1004.0
20190620065328 72 223 0.0 0.0 0.00 0.03 0.00 96 1004.0
20190620064833 72 223 0.0 0.0 0.00 0.03 0.00 96 1004.2
20190620064339 72 223 0.0 0.0 0.00 0.03 0.00 96 1004.2
20190620063828 72 223 0.0 0.0 0.00 0.03 0.00 96 1004.4
20190620063332 72 223 0.0 0.0 0.00 0.03 0.00 96 1004.3
20190620062835 72 223 0.0 0.0 0.00 0.03 0.00 96 1004.3
20190620062339 72 223 0.0 0.0 0.00 0.03 0.00 96 1004.3
20190620061823 72 223 0.0 0.0 0.00 0.03 0.00 96 1004.4
20190620061328 72 223 0.0 0.0 0.00 0.03 0.00 96 1004.6
20190620060832 72 223 0.0 0.0 0.00 0.03 0.00 96 1004.6
20190620060338 72 198 0.0 0.0 0.00 0.03 0.00 96 1004.7
20190620055834 72 198 0.0 0.0 0.00 0.03 0.00 96 1004.7
20190620055339 72 198 0.0 0.0 0.00 0.03 0.00 96 1004.7
20190620054824 72 198 0.0 0.0 0.00 0.03 0.00 96 1004.8
20190620054333 72 198 0.0 0.0 0.00 0.03 0.00 96 1004.8
20190620053838 72 198 0.0 0.0 0.00 0.03 0.00 96 1004.9
20190620053325 72 198 0.0 0.0 0.00 0.03 0.00 96 1005.0
20190620052826 73 198 0.0 0.0 0.00 0.03 0.00 96 1005.0
20190620052332 73 198 0.0 0.0 0.00 0.03 0.00 95 1005.1
20190620051837 73 198 0.0 0.0 0.00 0.03 0.00 95 1005.1
20190620051322 73 198 0.0 0.0 0.00 0.03 0.00 95 1005.1
20190620050827 73 198 0.0 0.0 0.00 0.03 0.00 96 1005.0
20190620050331 73 198 0.0 0.0 0.00 0.03 0.00 96 1005.1
20190620045827 73 198 0.0 0.0 0.00 0.03 0.00 96 1005.2
20190620045333 73 198 0.0 0.0 0.00 0.03 0.00 96 1005.2
20190620044821 73 198 0.0 0.0 0.01 0.03 0.00 96 1005.2
20190620044326 73 198 0.0 0.0 0.01 0.03 0.00 96 1005.3
20190620043831 73 198 0.0 0.0 0.01 0.03 0.00 95 1005.4
20190620043337 73 198 0.0 1.0 0.02 0.03 0.00 95 1005.4
20190620042822 73 198 0.0 1.0 0.02 0.03 0.00 95 1005.6
20190620042328 73 153 0.0 0.0 0.00 0.00 0.00 95 1005.5
20190620041830 73 153 0.0 1.0 0.02 0.03 0.00 95 1005.8
20190620041334 74 153 0.0 1.0 0.02 0.03 0.00 95 1005.8
20190620040839 74 153 0.0 0.0 0.02 0.03 0.00 95 1005.8
20190620040324 74 153 0.0 2.0 0.02 0.03 0.00 95 1005.9
20190620035822 74 153 0.0 2.0 0.02 0.03 0.03 95 1005.8
20190620035326 73 153 0.0 1.0 0.02 0.03 0.03 95 1005.9
20190620034831 73 153 0.0 1.0 0.01 0.02 0.02 95 1005.8
20190620034337 73 153 0.0 0.0 0.01 0.02 0.02 95 1005.9
20190620033820 73 153 0.0 1.0 0.01 0.02 0.02 95 1006.0
20190620033325 73 153 0.0 1.0 0.00 0.01 0.01 95 1006.0
20190620032829 73 143 0.0 0.0 0.00 0.01 0.01 95 1006.0
20190620032335 73 143 0.0 0.0 0.00 0.01 0.01 94 1005.9
20190620031839 73 143 0.0 0.0 0.00 0.01 0.01 94 1005.9
20190620031321 73 143 0.0 3.0 0.00 0.01 0.01 94 1005.9
20190620030826 73 143 0.0 3.0 0.00 0.01 0.01 94 1005.9
20190620030334 73 190 0.0 1.0 0.00 0.01 0.01 94 1005.9
20190620025831 73 190 0.0 0.0 0.00 0.01 0.01 94 1006.0
20190620025337 73 190 0.0 0.0 0.00 0.01 0.01 94 1006.2
20190620024822 73 190 0.0 0.0 0.00 0.01 0.01 94 1006.2
20190620024328 73 190 0.0 0.0 0.00 0.01 0.01 94 1006.2
20190620023833 73 190 0.0 0.0 0.00 0.01 0.01 93 1006.3
20190620023339 73 190 0.0 0.0 0.00 0.01 0.01 93 1006.2
20190620022825 73 190 0.0 0.0 0.00 0.01 0.01 93 1006.2
20190620022330 74 190 0.0 0.0 0.00 0.01 0.01 93 1006.1
20190620021835 74 190 0.0 1.0 0.00 0.01 0.01 93 1006.2
20190620021323 74 190 0.0 1.0 0.00 0.01 0.01 93 1006.4
20190620020827 74 190 0.0 0.0 0.00 0.01 0.01 93 1006.4
20190620015820 74 190 0.0 1.0 0.00 0.01 0.01 92 1006.3
20190620015326 74 191 0.0 0.0 0.00 0.01 0.01 93 1006.4
20190620014829 74 191 0.0 0.0 0.00 0.01 0.01 92 1006.5
20190620014336 74 191 0.0 0.0 0.00 0.01 0.01 92 1006.6
20190620013839 75 191 0.0 1.0 0.00 0.01 0.01 92 1006.5
20190620013322 75 238 0.0 0.0 0.01 0.01 0.01 91 1006.3
20190620012828 75 238 0.0 0.0 0.01 0.01 0.01 91 1006.4
20190620012332 75 238 0.0 0.0 0.01 0.01 0.01 90 1006.3
20190620011838 75 238 0.0 0.0 0.01 0.01 0.01 90 1006.2
20190620011322 75 238 0.0 0.0 0.01 0.01 0.01 89 1006.2
20190620010828 75 238 0.0 1.0 0.01 0.01 0.01 89 1006.3
20190620010331 76 238 0.0 3.0 0.01 0.01 0.01 89 1006.2
20190620005825 76 238 0.0 7.0 0.01 0.01 0.01 88 1006.1
20190620005328 76 282 1.0 7.0 0.01 0.01 0.01 87 1006.2
20190620004832 77 259 0.0 5.0 0.01 0.01 0.01 87 1006.2
20190620004338 77 259 2.0 4.0 0.01 0.01 0.01 86 1006.4
20190620003822 78 236 0.0 2.0 0.01 0.01 0.01 86 1006.5
20190620003325 79 178 0.0 2.0 0.00 0.00 0.00 84 1006.3
20190620002830 79 178 0.0 2.0 0.00 0.00 0.00 82 1006.3
20190620002338 80 178 0.0 1.0 0.00 0.00 0.00 80 1006.4
20190620001821 80 178 0.0 2.0 0.00 0.00 0.00 78 1006.3
20190620001327 80 178 0.0 2.0 0.00 0.00 0.00 76 1006.2
20190620000831 81 133 0.0 1.0 0.00 0.00 0.00 75 1006.0
20190620000336 81 133 0.0 1.0 0.00 0.00 0.00 74 1005.9
20190619235831 81 133 0.0 0.0 0.00 0.00 0.00 75 1006.0
20190619235338 81 133 0.0 1.0 0.00 0.00 0.00 74 1006.0
20190619234821 81 133 0.0 1.0 0.00 0.00 0.00 74 1005.9
20190619234325 81 133 0.0 0.0 0.00 0.00 0.00 74 1005.9
20190619233829 81 133 0.0 1.0 0.00 0.00 0.00 73 1005.9
20190619233335 81 133 0.0 1.0 0.00 0.00 0.00 74 1006.0
20190619232823 81 133 0.0 3.0 0.00 0.00 0.00 73 1006.2
20190619232326 81 133 0.0 3.0 0.00 0.00 0.00 72 1006.1
20190619231828 81 37 0.0 0.0 0.00 0.00 0.00 72 1006.0
20190619231334 81 5 0.0 0.0 0.00 0.00 0.00 73 1006.1
20190619230820 82 5 0.0 1.0 0.00 0.00 0.00 74 1006.0
20190619230325 82 5 0.0 1.0 0.00 0.00 0.00 73 1006.0
20190619225820 82 219 0.0 1.0 0.00 0.00 0.00 73 1006.2
20190619225325 82 219 0.0 0.0 0.00 0.00 0.00 73 1006.1
20190619224830 82 219 0.0 2.0 0.00 0.00 0.00 72 1006.2
20190619224333 82 219 0.0 2.0 0.00 0.00 0.00 73 1006.3
20190619223822 82 219 0.0 2.0 0.00 0.00 0.00 71 1006.3
20190619223326 82 219 0.0 2.0 0.00 0.00 0.00 71 1006.4
20190619222831 82 219 0.0 3.0 0.00 0.00 0.00 73 1006.5
20190619222337 82 138 0.0 4.0 0.00 0.00 0.00 71 1006.4
20190619221823 82 192 1.0 5.0 0.00 0.00 0.00 71 1006.3
20190619221327 82 213 0.0 5.0 0.00 0.00 0.00 70 1006.4
20190619220834 82 217 0.0 5.0 0.00 0.00 0.00 71 1006.3
20190619220339 82 192 2.0 5.0 0.00 0.00 0.00 69 1006.3
20190619215835 83 233 1.0 5.0 0.00 0.00 0.00 69 1006.4
20190619215322 83 235 1.0 5.0 0.00 0.00 0.00 69 1006.4
20190619214826 83 155 2.0 6.0 0.00 0.00 0.00 71 1006.3
20190619214336 83 248 1.0 6.0 0.00 0.00 0.00 69 1006.3
20190619213839 83 211 0.0 6.0 0.00 0.00 0.00 69 1006.3
20190619213322 83 203 1.0 6.0 0.00 0.00 0.00 68 1006.3
20190619212827 83 227 3.0 6.0 0.00 0.00 0.00 67 1006.4
20190619212332 83 174 1.0 7.0 0.00 0.00 0.00 69 1006.5
20190619211836 83 234 3.0 7.0 0.00 0.00 0.00 67 1006.5
20190619211321 83 269 3.0 6.0 0.00 0.00 0.00 67 1006.7
20190619210828 83 227 2.0 6.0 0.00 0.00 0.00 66 1006.6
20190619205822 84 246 1.0 5.0 0.00 0.00 0.00 67 1006.6
20190619205333 84 167 1.0 6.0 0.00 0.00 0.00 67 1006.6
20190619204819 84 178 1.0 8.0 0.00 0.00 0.00 68 1006.7
20190619204325 85 247 2.0 8.0 0.00 0.00 0.00 65 1006.8
20190619203831 85 194 1.0 6.0 0.00 0.00 0.00 69 1006.8
20190619203336 85 221 3.0 5.0 0.00 0.00 0.00 67 1006.8
20190619202822 84 224 2.0 8.0 0.00 0.00 0.00 67 1006.8
20190619202327 84 205 4.0 8.0 0.00 0.00 0.00 67 1006.9
20190619201832 84 228 1.0 5.0 0.00 0.00 0.00 68 1006.9
20190619201336 84 255 1.0 6.0 0.00 0.00 0.00 68 1007.0
20190619200821 83 136 1.0 9.0 0.00 0.00 0.00 71 1007.2
20190619200330 83 265 3.0 9.0 0.00 0.00 0.00 70 1007.3
20190619195825 83 166 1.0 8.0 0.00 0.00 0.00 72 1007.3
20190619195330 83 211 2.0 10.0 0.00 0.00 0.00 70 1007.4
20190619194837 83 244 3.0 10.0 0.00 0.00 0.00 69 1007.4
20190619194322 83 221 3.0 10.0 0.00 0.00 0.00 69 1007.4
20190619193825 83 209 4.0 10.0 0.00 0.00 0.00 68 1007.5
20190619193330 83 214 4.0 7.0 0.00 0.00 0.00 71 1007.6
20190619192833 82 234 1.0 8.0 0.00 0.00 0.00 73 1007.5
20190619192337 83 220 5.0 8.0 0.00 0.00 0.00 70 1007.7
20190619191823 84 243 2.0 7.0 0.00 0.00 0.00 70 1007.8
20190619191330 83 156 1.0 7.0 0.00 0.00 0.00 73 1007.7
20190619190839 83 213 2.0 7.0 0.00 0.00 0.00 72 1007.8
20190619190324 82 240 2.0 8.0 0.00 0.00 0.00 73 1007.8
20190619185838 81 143 1.0 5.0 0.00 0.00 0.00 73 1007.8
20190619185321 81 234 1.0 6.0 0.00 0.00 0.00 73 1007.9
20190619184826 81 202 3.0 6.0 0.00 0.00 0.00 72 1008.0
20190619184331 82 250 2.0 7.0 0.00 0.00 0.00 71 1008.1
20190619183834 82 213 3.0 7.0 0.00 0.00 0.00 70 1008.2
20190619183340 82 208 3.0 9.0 0.00 0.00 0.00 69 1008.2
20190619182825 82 242 3.0 9.0 0.00 0.00 0.00 70 1008.2
20190619182329 82 232 0.0 8.0 0.00 0.00 0.00 71 1008.2
20190619181835 83 298 4.0 7.0 0.00 0.00 0.00 70 1008.4
20190619181326 82 136 2.0 6.0 0.00 0.00 0.00 73 1008.4
20190619180831 82 248 3.0 6.0 0.00 0.00 0.00 68 1008.5
20190619180337 82 207 1.0 8.0 0.00 0.00 0.00 67 1008.5
20190619175830 82 191 2.0 8.0 0.00 0.00 0.00 68 1008.6
20190619175336 82 231 2.0 7.0 0.00 0.00 0.00 69 1008.7
20190619174840 82 220 3.0 7.0 0.00 0.00 0.00 69 1008.8
20190619174322 82 138 1.0 4.0 0.00 0.00 0.00 72 1008.9
20190619173826 82 186 1.0 7.0 0.00 0.00 0.00 70 1008.9
20190619173328 82 120 1.0 7.0 0.00 0.00 0.00 70 1009.1
20190619172832 82 195 1.0 7.0 0.00 0.00 0.00 74 1009.1
20190619172336 81 216 2.0 7.0 0.00 0.00 0.00 73 1009.1
20190619171825 80 219 0.0 7.0 0.00 0.00 0.00 75 1009.2
20190619171330 80 272 5.0 7.0 0.00 0.00 0.00 78 1009.3
20190619170836 80 205 1.0 7.0 0.00 0.00 0.00 76 1009.3
20190619170339 80 229 3.0 7.0 0.00 0.00 0.00 75 1009.4
20190619165834 80 248 3.0 6.0 0.00 0.00 0.00 72 1009.4
20190619165338 80 204 0.0 6.0 0.00 0.00 0.00 74 1009.5
20190619164822 80 227 2.0 7.0 0.00 0.00 0.00 74 1009.6
20190619164329 80 122 1.0 4.0 0.00 0.00 0.00 74 1009.6
20190619163834 80 189 2.0 8.0 0.00 0.00 0.00 73 1009.6
20190619163338 80 215 3.0 8.0 0.00 0.00 0.00 75 1009.7
20190619162828 80 204 1.0 7.0 0.00 0.00 0.00 75 1009.8
20190619162335 81 213 2.0 8.0 0.00 0.00 0.00 74 1009.8
20190619161840 80 209 4.0 8.0 0.00 0.00 0.00 75 1009.9
20190619161325 80 211 2.0 7.0 0.00 0.00 0.00 73 1009.9
20190619160829 80 93 2.0 7.0 0.00 0.00 0.00 75 1009.8
20190619160334 80 175 1.0 8.0 0.00 0.00 0.00 76 1009.9
20190619155829 80 216 3.0 8.0 0.00 0.00 0.00 76 1009.8
20190619155334 80 232 1.0 6.0 0.00 0.00 0.00 78 1009.8
20190619154837 79 207 2.0 6.0 0.00 0.00 0.00 81 1009.8
20190619154320 79 131 0.0 3.0 0.00 0.00 0.00 81 1009.8
20190619153822 78 129 1.0 3.0 0.00 0.00 0.00 81 1009.9
20190619153333 78 228 0.0 3.0 0.00 0.00 0.00 80 1009.9
20190619152836 78 228 1.0 3.0 0.00 0.00 0.00 80 1010.1
20190619152321 78 228 1.0 3.0 0.00 0.00 0.00 81 1010.1
20190619151826 77 252 0.0 1.0 0.00 0.00 0.00 81 1010.2
20190619151331 77 252 0.0 1.0 0.00 0.00 0.00 80 1010.2
20190619150838 77 252 0.0 2.0 0.00 0.00 0.00 81 1010.3
20190619150323 77 252 1.0 4.0 0.00 0.00 0.00 80 1010.4
20190619145835 77 229 2.0 4.0 0.00 0.00 0.00 80 1010.4
20190619145339 77 146 0.0 1.0 0.00 0.00 0.00 82 1010.4
20190619144823 76 146 0.0 1.0 0.00 0.00 0.00 84 1010.5
20190619144329 76 146 0.0 4.0 0.00 0.00 0.00 83 1010.5
20190619143838 76 146 0.0 4.0 0.00 0.00 0.00 83 1010.5
20190619143339 76 244 1.0 4.0 0.00 0.00 0.00 85 1010.6
20190619142824 76 227 2.0 4.0 0.00 0.00 0.00 84 1010.6
20190619142327 76 227 2.0 4.0 0.00 0.00 0.00 84 1010.6
20190619141830 75 244 0.0 3.0 0.00 0.00 0.00 86 1010.6
20190619141334 75 244 1.0 3.0 0.00 0.00 0.00 85 1010.5
20190619140839 75 244 1.0 2.0 0.00 0.00 0.00 85 1010.6
20190619140323 74 244 0.0 1.0 0.00 0.00 0.00 85 1010.7
20190619135837 74 244 0.0 2.0 0.00 0.00 0.00 85 1010.7
20190619135321 74 244 0.0 3.0 0.00 0.00 0.00 86 1010.8
20190619134826 74 244 2.0 4.0 0.00 0.00 0.00 87 1010.8
20190619134335 74 244 2.0 4.0 0.00 0.00 0.00 87 1010.9
20190619133839 74 209 0.0 1.0 0.00 0.00 0.00 89 1011.0
20190619133323 73 209 0.0 2.0 0.00 0.00 0.00 88 1010.9
20190619132826 73 209 1.0 3.0 0.00 0.00 0.00 88 1010.9
20190619132330 73 209 1.0 3.0 0.00 0.00 0.00 89 1011.0
20190619131835 73 54 1.0 2.0 0.00 0.00 0.00 89 1011.0
20190619131340 73 116 0.0 1.0 0.00 0.00 0.00 90 1011.0
20190619130825 73 116 0.0 1.0 0.00 0.00 0.00 91 1010.9
20190619130328 73 116 0.0 2.0 0.00 0.00 0.00 91 1010.9
20190619125822 73 116 0.0 2.0 0.00 0.00 0.00 92 1011.0
20190619125327 72 115 0.0 2.0 0.00 0.00 0.00 92 1011.0
20190619124837 72 115 0.0 2.0 0.00 0.00 0.00 92 1011.0
20190619124322 72 115 0.0 1.0 0.00 0.00 0.00 92 1011.1
20190619123324 72 107 0.0 0.0 0.00 0.00 0.00 92 1011.1
20190619122828 72 107 0.0 0.0 0.00 0.00 0.00 93 1011.0
20190619122334 72 107 0.0 0.0 0.00 0.00 0.00 93 1011.1
20190619121839 72 107 0.0 0.0 0.00 0.00 0.00 94 1011.0
20190619121323 71 107 0.0 1.0 0.00 0.00 0.00 94 1010.9
20190619120828 71 107 0.0 1.0 0.00 0.00 0.00 94 1010.8
20190619120333 71 5 0.0 0.0 0.00 0.00 0.00 94 1010.8
20190619115832 71 5 0.0 0.0 0.00 0.00 0.00 94 1010.6
20190619115336 71 5 0.0 0.0 0.00 0.00 0.00 94 1010.7
20190619114840 71 5 0.0 0.0 0.00 0.00 0.00 94 1010.8
20190619114324 71 5 0.0 0.0 0.00 0.00 0.00 94 1010.7
20190619113828 71 5 0.0 0.0 0.00 0.00 0.00 95 1010.8
20190619113332 71 5 0.0 0.0 0.00 0.00 0.00 95 1010.7
20190619112838 71 5 0.0 0.0 0.00 0.00 0.00 95 1010.7
20190619112329 70 5 0.0 1.0 0.00 0.00 0.00 95 1010.7
20190619111829 70 5 0.0 1.0 0.00 0.00 0.00 95 1010.7
20190619111333 70 5 0.0 1.0 0.00 0.00 0.00 95 1010.8
20190619110824 70 148 0.0 1.0 0.00 0.00 0.00 95 1010.7
20190619110328 70 13 0.0 0.0 0.00 0.00 0.00 95 1010.6
20190619105824 70 13 0.0 0.0 0.00 0.00 0.00 95 1010.6
20190619105328 70 13 0.0 0.0 0.00 0.00 0.00 95 1010.6
20190619104832 70 13 0.0 0.0 0.00 0.00 0.00 95 1010.6
20190619104337 70 63 0.0 0.0 0.00 0.00 0.00 95 1010.6
20190619103822 70 298 0.0 0.0 0.00 0.00 0.00 95 1010.6
20190619103328 70 298 0.0 0.0 0.00 0.00 0.00 95 1010.6
20190619102832 70 298 0.0 1.0 0.00 0.00 0.00 95 1010.6
20190619102338 70 298 0.0 1.0 0.00 0.00 0.00 95 1010.6
20190619101823 70 298 0.0 0.0 0.00 0.00 0.00 95 1010.7
20190619101334 70 298 0.0 0.0 0.00 0.00 0.00 95 1010.7
20190619100839 70 298 0.0 0.0 0.00 0.00 0.00 95 1010.6
20190619100325 70 298 0.0 0.0 0.00 0.00 0.00 95 1010.6
20190619095840 70 298 0.0 1.0 0.00 0.00 0.00 95 1010.7
20190619095325 70 298 0.0 3.0 0.00 0.00 0.00 95 1010.6
20190619094829 70 298 327.0 327.0 0.00 0.00 0.00 95 1010.4
20190619094334 70 244 0.0 2.0 0.00 0.00 0.00 95 1010.6
20190619093820 70 244 1.0 2.0 0.00 0.00 0.00 95 1010.6